| time (UTC) | temp C | wind direction | speed KPH | gust KPH | rain 1hr cm | rain 24hr cm | rain mn cm | humidity % | barometer mb |
| 20260901001036 | 13 | 242 | 0.0 | 0.0 | 0.00 | 0.00 | 0.03 | 77 | 1028.4 |
| 20260901000032 | 13 | 242 | 0.0 | 0.0 | 0.00 | 0.00 | 0.03 | 75 | 1028.6 |
| 20260831235036 | 13 | 242 | 0.0 | 0.0 | 0.00 | 0.00 | 0.03 | 75 | 1028.4 |
| 20260831234033 | 13 | 242 | 0.0 | 0.0 | 0.00 | 0.00 | 0.03 | 74 | 1028.4 |
| 20260831233030 | 13 | 241 | 0.0 | 0.0 | 0.00 | 0.00 | 0.03 | 76 | 1028.1 |
| 20260831232026 | 13 | 237 | 0.0 | 0.0 | 0.00 | 0.00 | 0.03 | 78 | 1027.1 |
| 20260831231027 | 14 | 222 | 0.0 | 0.0 | 0.00 | 0.00 | 0.03 | 73 | 1027.2 |
| 20260831230023 | 16 | 194 | 1.6 | 0.0 | 0.00 | 0.00 | 0.03 | 64 | 1027.3 |
| 20260831225022 | 17 | 119 | 0.0 | 0.0 | 0.00 | 0.00 | 0.03 | 51 | 1027.1 |
| 20260831223041 | 17 | 360 | 0.0 | 0.0 | 0.00 | 0.00 | 0.03 | 60 | 1026.7 |
| 20260831222020 | 17 | 355 | 0.0 | 0.0 | 0.00 | 0.00 | 0.03 | 64 | 1027.0 |
| 20260831221021 | 17 | 355 | 0.0 | 0.0 | 0.00 | 0.00 | 0.03 | 59 | 1026.9 |
| 20260831220024 | 18 | 355 | 0.0 | 0.0 | 0.00 | 0.00 | 0.03 | 59 | 1027.0 |
| 20260831215022 | 18 | 355 | 0.0 | 0.0 | 0.00 | 0.00 | 0.03 | 57 | 1026.9 |
| 20260831212041 | 18 | 360 | 0.0 | 0.0 | 0.00 | 0.00 | 0.03 | 57 | 1027.2 |
| 20260831211038 | 18 | 355 | 0.0 | 0.0 | 0.00 | 0.00 | 0.03 | 60 | 1027.6 |
| 20260831205030 | 18 | 360 | 1.6 | 0.0 | 0.00 | 0.00 | 0.03 | 62 | 1028.1 |
| 20260831204029 | 17 | 360 | 1.6 | 0.0 | 0.00 | 0.00 | 0.03 | 65 | 1028.4 |
| 20260831203027 | 17 | 87 | 1.6 | 0.0 | 0.00 | 0.00 | 0.03 | 65 | 1028.3 |
| 20260831202023 | 16 | 81 | 4.8 | 0.0 | 0.00 | 0.00 | 0.03 | 66 | 1028.3 |
| 20260831201020 | 17 | 103 | 1.6 | 0.0 | 0.00 | 0.00 | 0.03 | 65 | 1028.3 |
| 20260831200039 | 17 | 10 | 1.6 | 0.0 | 0.00 | 0.00 | 0.03 | 64 | 1028.4 |
| 20260831195044 | 17 | 76 | 0.0 | 0.0 | 0.00 | 0.00 | 0.03 | 68 | 1027.9 |
| 20260831194034 | 16 | 86 | 0.0 | 0.0 | 0.00 | 0.00 | 0.03 | 72 | 1028.3 |
| 20260831190034 | 15 | 98 | 1.6 | 0.0 | 0.00 | 0.00 | 0.03 | 75 | 1029.2 |
| 20260831185030 | 15 | 105 | 0.0 | 0.0 | 0.00 | 0.00 | 0.03 | 76 | 1029.4 |
| 20260831184026 | 15 | 105 | 0.0 | 0.0 | 0.00 | 0.00 | 0.03 | 76 | 1029.4 |
| 20260831183024 | 15 | 105 | 0.0 | 0.0 | 0.00 | 0.00 | 0.03 | 78 | 1029.5 |
| 20260831182022 | 14 | 105 | 1.6 | 0.0 | 0.00 | 0.00 | 0.03 | 80 | 1029.8 |
| 20260831181022 | 14 | 84 | 1.6 | 0.0 | 0.00 | 0.00 | 0.03 | 82 | 1029.9 |
| 20260831180025 | 14 | 101 | 1.6 | 0.0 | 0.00 | 0.00 | 0.03 | 80 | 1030.0 |
| 20260831175022 | 13 | 131 | 0.0 | 0.0 | 0.00 | 0.00 | 0.03 | 81 | 1030.1 |
| 20260831174038 | 13 | 103 | 0.0 | 0.0 | 0.00 | 0.00 | 0.03 | 80 | 1030.1 |
| 20260831173021 | 12 | 103 | 0.0 | 0.0 | 0.00 | 0.00 | 0.03 | 83 | 1030.2 |
| 20260831172038 | 12 | 102 | 0.0 | 0.0 | 0.00 | 0.00 | 0.03 | 85 | 1030.3 |
| 20260831171033 | 11 | 102 | 0.0 | 0.0 | 0.00 | 0.00 | 0.03 | 88 | 1030.5 |
| 20260831170030 | 11 | 102 | 0.0 | 0.0 | 0.00 | 0.00 | 0.03 | 91 | 1029.9 |
| 20260831165027 | 11 | 337 | 0.0 | 0.0 | 0.00 | 0.00 | 0.03 | 93 | 1029.9 |
| 20260831164026 | 10 | 13 | 0.0 | 0.0 | 0.00 | 0.00 | 0.03 | 95 | 1029.9 |
| 20260831163024 | 10 | 13 | 0.0 | 0.0 | 0.00 | 0.00 | 0.03 | 96 | 1030.0 |
| 20260831162022 | 10 | 13 | 0.0 | 0.0 | 0.00 | 0.00 | 0.03 | 96 | 1030.1 |
| 20260831160024 | 9 | 13 | 0.0 | 0.0 | 0.00 | 0.00 | 0.03 | 96 | 1030.0 |
| 20260831154026 | 8 | 13 | 0.0 | 0.0 | 0.00 | 0.00 | 0.03 | 96 | 1030.1 |
| 20260831153021 | 8 | 326 | 0.0 | 0.0 | 0.00 | 0.00 | 0.03 | 96 | 1030.0 |
| 20260831152037 | 8 | 326 | 0.0 | 0.0 | 0.00 | 0.00 | 0.03 | 97 | 1030.0 |
| 20260831151018 | 8 | 326 | 0.0 | 0.0 | 0.00 | 0.00 | 0.03 | 97 | 1030.0 |
| 20260831150019 | 8 | 326 | 0.0 | 0.0 | 0.00 | 0.00 | 0.03 | 97 | 1030.0 |
| 20260831145021 | 8 | 326 | 0.0 | 0.0 | 0.00 | 0.00 | 0.03 | 97 | 1030.0 |
| 20260831143038 | 7 | 326 | 0.0 | 0.0 | 0.00 | 0.00 | 0.03 | 97 | 1029.7 |
| 20260831142038 | 7 | 326 | 0.0 | 0.0 | 0.00 | 0.00 | 0.03 | 97 | 1029.8 |
| 20260831141036 | 7 | 326 | 0.0 | 0.0 | 0.00 | 0.00 | 0.03 | 97 | 1029.7 |
| 20260831134035 | 7 | 326 | 0.0 | 0.0 | 0.00 | 0.00 | 0.03 | 97 | 1029.2 |
| 20260831133035 | 7 | 326 | 0.0 | 0.0 | 0.00 | 0.00 | 0.03 | 97 | 1029.2 |
| 20260831132034 | 7 | 326 | 0.0 | 0.0 | 0.00 | 0.00 | 0.03 | 96 | 1029.0 |
| 20260831131032 | 6 | 326 | 0.0 | 0.0 | 0.00 | 0.00 | 0.03 | 96 | 1028.8 |
| 20260831125034 | 6 | 326 | 0.0 | 0.0 | 0.00 | 0.00 | 0.03 | 96 | 1028.5 |
| 20260831124034 | 6 | 326 | 0.0 | 0.0 | 0.00 | 0.00 | 0.03 | 96 | 1028.6 |
| 20260831123032 | 6 | 326 | 0.0 | 0.0 | 0.00 | 0.00 | 0.03 | 96 | 1028.3 |
| 20260831122031 | 6 | 326 | 0.0 | 0.0 | 0.00 | 0.00 | 0.03 | 96 | 1028.2 |
| 20260831121028 | 5 | 326 | 0.0 | 0.0 | 0.00 | 0.00 | 0.03 | 96 | 1028.1 |
| 20260831120028 | 5 | 326 | 0.0 | 0.0 | 0.00 | 0.00 | 0.03 | 96 | 1028.1 |
| 20260831115026 | 5 | 326 | 0.0 | 0.0 | 0.00 | 0.00 | 0.03 | 96 | 1027.9 |
| 20260831114025 | 5 | 326 | 0.0 | 0.0 | 0.00 | 0.00 | 0.03 | 96 | 1027.9 |
| 20260831113021 | 5 | 326 | 0.0 | 0.0 | 0.00 | 0.00 | 0.00 | 96 | 1027.9 |
| 20260831112022 | 5 | 326 | 0.0 | 0.0 | 0.00 | 0.00 | 0.00 | 96 | 1027.9 |
| 20260831110020 | 5 | 326 | 0.0 | 0.0 | 0.00 | 0.00 | 0.00 | 96 | 1027.6 |
| 20260831105023 | 5 | 326 | 0.0 | 0.0 | 0.00 | 0.00 | 0.00 | 96 | 1027.7 |
| 20260831104022 | 5 | 326 | 0.0 | 0.0 | 0.00 | 0.00 | 0.00 | 96 | 1027.8 |
| 20260831102021 | 6 | 326 | 0.0 | 0.0 | 0.00 | 0.00 | 0.00 | 96 | 1027.7 |
| 20260831101027 | 5 | 326 | 0.0 | 0.0 | 0.00 | 0.00 | 0.00 | 96 | 1027.6 |
| 20260831095027 | 5 | 326 | 0.0 | 0.0 | 0.00 | 0.00 | 0.00 | 96 | 1027.6 |
| 20260831094023 | 5 | 326 | 0.0 | 0.0 | 0.00 | 0.00 | 0.00 | 95 | 1027.4 |
| 20260831093040 | 5 | 326 | 0.0 | 0.0 | 0.00 | 0.00 | 0.00 | 95 | 1027.4 |
| 20260831091023 | 5 | 326 | 0.0 | 0.0 | 0.00 | 0.00 | 0.00 | 95 | 1028.2 |
| 20260831090019 | 5 | 326 | 0.0 | 0.0 | 0.00 | 0.00 | 0.00 | 95 | 1027.9 |
| 20260831085019 | 5 | 326 | 0.0 | 0.0 | 0.00 | 0.00 | 0.00 | 95 | 1027.9 |
| 20260831084038 | 5 | 326 | 0.0 | 0.0 | 0.00 | 0.00 | 0.00 | 95 | 1027.9 |
| 20260831083039 | 5 | 326 | 0.0 | 0.0 | 0.00 | 0.00 | 0.00 | 95 | 1028.0 |
| 20260831082035 | 5 | 326 | 0.0 | 0.0 | 0.00 | 0.00 | 0.00 | 95 | 1028.0 |
| 20260831081032 | 5 | 326 | 0.0 | 0.0 | 0.00 | 0.00 | 0.00 | 95 | 1028.0 |
| 20260831080034 | 5 | 326 | 0.0 | 0.0 | 0.00 | 0.00 | 0.00 | 95 | 1027.9 |
| 20260831075029 | 6 | 326 | 0.0 | 0.0 | 0.00 | 0.00 | 0.00 | 95 | 1028.0 |
| 20260831074031 | 6 | 326 | 0.0 | 0.0 | 0.00 | 0.00 | 0.00 | 95 | 1028.1 |
| 20260831073027 | 6 | 326 | 0.0 | 0.0 | 0.00 | 0.00 | 0.00 | 95 | 1028.2 |
| 20260831072025 | 6 | 326 | 0.0 | 0.0 | 0.00 | 0.00 | 0.00 | 94 | 1028.2 |
| 20260831071021 | 6 | 326 | 0.0 | 0.0 | 0.00 | 0.00 | 0.00 | 94 | 1028.3 |
| 20260831070027 | 6 | 326 | 0.0 | 0.0 | 0.00 | 0.00 | 0.00 | 94 | 1028.4 |
| 20260831065027 | 6 | 326 | 0.0 | 0.0 | 0.00 | 0.00 | 0.00 | 94 | 1028.5 |
| 20260831064028 | 6 | 326 | 0.0 | 0.0 | 0.00 | 0.00 | 0.00 | 94 | 1028.5 |
| 20260831063027 | 6 | 326 | 0.0 | 0.0 | 0.00 | 0.00 | 0.00 | 93 | 1028.6 |
| 20260831062025 | 7 | 326 | 0.0 | 0.0 | 0.00 | 0.00 | 0.00 | 93 | 1028.4 |
| 20260831061033 | 7 | 326 | 0.0 | 0.0 | 0.00 | 0.00 | 0.00 | 92 | 1028.6 |
| 20260831060028 | 7 | 326 | 0.0 | 0.0 | 0.00 | 0.00 | 0.00 | 92 | 1028.6 |
| 20260831054024 | 7 | 326 | 0.0 | 0.0 | 0.00 | 0.00 | 1.75 | 93 | 1028.5 |
| 20260831053029 | 7 | 326 | 0.0 | 0.0 | 0.00 | 0.00 | 1.75 | 93 | 1028.5 |
| 20260831052026 | 7 | 326 | 0.0 | 0.0 | 0.00 | 0.00 | 1.75 | 93 | 1028.5 |
| 20260831051023 | 7 | 326 | 0.0 | 0.0 | 0.00 | 0.00 | 1.75 | 93 | 1028.5 |
| 20260831050022 | 7 | 326 | 0.0 | 0.0 | 0.00 | 0.00 | 1.75 | 92 | 1028.4 |
| 20260831045018 | 7 | 326 | 0.0 | 0.0 | 0.00 | 0.00 | 1.75 | 92 | 1028.7 |
| 20260831043024 | 8 | 326 | 0.0 | 0.0 | 0.00 | 0.00 | 1.75 | 91 | 1029.3 |
| 20260831042024 | 8 | 327 | 1.6 | 0.0 | 0.00 | 0.00 | 1.75 | 91 | 1029.1 |
| 20260831041020 | 8 | 288 | 0.0 | 0.0 | 0.00 | 0.00 | 1.75 | 91 | 1028.4 |
| 20260831040023 | 8 | 228 | 0.0 | 0.0 | 0.00 | 0.00 | 1.75 | 91 | 1028.4 |
| 20260831034021 | 8 | 206 | 0.0 | 0.0 | 0.00 | 0.00 | 1.75 | 92 | 1029.2 |
| 20260831033017 | 8 | 286 | 0.0 | 0.0 | 0.00 | 0.00 | 1.68 | 91 | 1030.0 |
| 20260831031032 | 9 | 242 | 1.6 | 0.0 | 0.00 | 0.00 | 1.42 | 89 | 1030.1 |
| 20260831030037 | 10 | 273 | 3.2 | 0.0 | 0.00 | 0.00 | 1.35 | 88 | 1029.7 |
| 20260831025033 | 11 | 257 | 0.0 | 0.0 | 0.00 | 0.00 | 1.22 | 89 | 1029.5 |
| 20260831024034 | 11 | 259 | 0.0 | 0.0 | 0.00 | 0.00 | 1.17 | 87 | 1028.7 |
| 20260831023021 | 11 | 228 | 0.0 | 0.0 | 0.00 | 0.00 | 1.17 | 85 | 1028.2 |
| 20260831022022 | 11 | 283 | 0.0 | 0.0 | 0.00 | 0.00 | 1.17 | 85 | 1027.9 |
| 20260831015022 | 11 | 283 | 0.0 | 0.0 | 0.00 | 0.00 | 1.17 | 84 | 1027.3 |
| 20260831014040 | 12 | 283 | 0.0 | 0.0 | 0.00 | 0.00 | 1.17 | 84 | 1027.0 |
| 20260831013036 | 12 | 283 | 0.0 | 0.0 | 0.00 | 0.00 | 1.17 | 82 | 1026.9 |
| 20260831012037 | 12 | 283 | 0.0 | 0.0 | 0.00 | 0.00 | 1.17 | 82 | 1026.8 |
| 20260831011034 | 12 | 283 | 0.0 | 0.0 | 0.00 | 0.00 | 1.17 | 82 | 1027.3 |
| 20260831005032 | 12 | 306 | 0.0 | 0.0 | 0.00 | 0.00 | 1.17 | 80 | 1027.2 |
| 20260831004037 | 13 | 169 | 0.0 | 0.0 | 0.00 | 0.00 | 1.17 | 79 | 1027.2 |
| 20260831003025 | 13 | 169 | 0.0 | 0.0 | 0.00 | 0.00 | 1.17 | 79 | 1027.2 |
| 20260831002026 | 13 | 265 | 0.0 | 0.0 | 0.00 | 0.00 | 1.17 | 78 | 1027.2 |